Weather in Novaya Smail

Russia / Kirov Oblast     56°24′10″N   50°39′44″E
temp.,
°C
wind,
m/s
gust,
m/s
humid.,
%
clouds,
%
prec.,
mm/h
press.,
hPa
HPBL,
m
25 january, mon
mon2500:00+1ssw51098100 0.1 1023351
03:00+1ssw51196100 0.2 1024357
06:00+1ssw61195100 0.1 1024334
09:000ssw71295100 0.3 1026407
12:00−1ssw7139299 0.3 1026483
15:00−2ssw6109199 0.3 1027622
18:00−2ssw51090100 0.0 1027562
21:00−2s41094100 0.1 1027509
26 january, tue
tue2600:00−2s5991100 0.0 1027556
03:00−6s4993100 0.1 1027348
06:00−5sse4995100 0.0 1026263
09:00−3s51094100 0.1 1026474
12:00−2ssw6991100 0.0 1025556
15:00−3ssw51092100 0.1 1025583
18:00−3ssw51093100 0.1 1025543
21:00−2ssw51092100 0.1 1025568
27 january, wed
wed2700:00−2ssw51092100 0.0 1025610
03:00−3s5993100 0.1 1024442
06:00−3s51192100 0.1 1024680
09:00−3s61193100 0.1 1023540
12:00−3s71193100 0.1 1023553
15:00−4s61193100 0.1 1022569
18:00−3ssw51194100 0.1 1022585
21:00−4s61093100 0.1 1021525
28 january, thu
thu2800:00−7s51193100 0.0 1021422
03:00−6s51191100 0.1 1021429
06:00−6s51191100 0.0 1020409
09:00−5s51290100 0.0 1020396
12:00−5s61089100 0.0 1019431
15:00−5s51090100 0.0 1019400
18:00−7s41093100 0.0 1019283
21:00−7sse4893100 0.0 1018246
29 january, fri
fri2900:00−9sse4694100 0.0 1018148
03:00−10se4794100 0.0 1018172
06:00−9se4793100 0.0 1017179
09:00−9se4891100 0.0 1016256
12:00−6ese5890100 0.0 1015339
15:00−6ese4891100 0.0 1012350
18:00−7ese4994100 0.0 1011241
21:00−6ese41092100 0.0 1009340